Regional Weather Roundup
Issued by NWS

Home | Current Version | Previous Version | Graphics & Text | Print | Product List | Glossary On
Versions: 1 2 3 4 5 6 7 8 9 10 11 12 13 14 15 16 17 18 19 20 21 22 23 24 25 26 27 28 29 30 31 32 33 34 35 36 37 38 39 40 41 42 43 44 45 46 47 48 49 50
195
ASUS43 KDTX 270010
RWRMI
MICHIGAN HOURLY REGIONAL WEATHER ROUNDUP
NATIONAL WEATHER SERVICE DETROIT/PONTIAC MI
800 PM EDT SAT MAY 26 2018

NOTE: "FAIR" INDICATES FEW OR NO CLOUDS BELOW 12,000 FEET WITH NO
SIGNIFICANT WEATHER AND/OR OBSTRUCTION TO VISIBILITY.

MIZ047>049-052>055-059>063-066>070-074>076-081>083-270100-
SOUTHEAST LOWER MICHIGAN

CITY           SKY/WX    TMP DP  RH WIND       PRES   REMARKS
ADRIAN         FAIR      76  66  71 SW6       29.78S
6HR MIN TEMP:  75; 6HR MAX TEMP:  84; 6HR PCP: TRACE;

ALMA           FAIR      82  65  55 SW7       29.75R
6HR MIN TEMP:  82; 6HR MAX TEMP:  85;

ANN ARBOR      FAIR      74  66  76 SE5       29.79R
BAD AXE        FAIR      73  62  68 NE3       29.78R
6HR MIN TEMP:  73; 6HR MAX TEMP:  85;

CARO           FAIR      79  62  55 SE3       29.76R
DETROIT CITY   FAIR      77  63  61 S7        29.79R
6HR MIN TEMP:  77; 6HR MAX TEMP:  82;

DETROIT        FAIR      75  63  66 S7        29.79S
6HR MIN TEMP:  74; 6HR MAX TEMP:  82; 6HR PCP: TRACE;

FLINT          FAIR      79  64  60 SE10      29.76S
6HR MIN TEMP:  78; 6HR MAX TEMP:  83;

GROSSE ILE     FAIR      70  64  82 S5        29.78F
6HR MIN TEMP:  67; 6HR MAX TEMP:  75; 6HR PCP:  0.02;

HILLSDALE      FAIR      73  66  78 SE7       29.79R
HOWELL         FAIR      76  67  73 SE8       29.78S
6HR MIN TEMP:  76; 6HR MAX TEMP:  83;


CITY           SKY/WX    TMP DP  RH WIND       PRES   REMARKS
JACKSON        CLOUDY    78  68  71 SE12      29.78R
6HR MIN TEMP:  78; 6HR MAX TEMP:  84;

LAMBERTVILLE   FAIR      75  69  84 CALM      29.78S
6HR MIN TEMP:  72; 6HR MAX TEMP:  85;

LANSING        FAIR      83  65  54 W7        29.76S
6HR MIN TEMP:  81; 6HR MAX TEMP:  86;

LAPEER         FAIR      78  61  55 S3        29.79R
6HR MIN TEMP:  78; 6HR MAX TEMP:  84;

MASON          MOCLDY    81  67  61 S5        29.77S
6HR MIN TEMP:  81; 6HR MAX TEMP:  85;

MONROE         FAIR      73  67  81 SE3       29.78S
6HR MIN TEMP:  71; 6HR MAX TEMP:  77; 6HR PCP:  0.19;

MT. CLEMENS    PTCLDY    75  67  77 S6        29.80R
6HR MIN TEMP:  73; 6HR MAX TEMP:  80;

PONTIAC        FAIR      78  65  63 SE8       29.78R
6HR MIN TEMP:  75; 6HR MAX TEMP:  81;

PORT HOPE        N/A     54  52  93 E6        29.78R
6HR MIN TEMP:  53; 6HR MAX TEMP:  72;

PORT HURON     FAIR      77  59  53 S3        29.79S
TRI CITIES     FAIR      83  64  52 S6        29.75R
6HR MIN TEMP:  82; 6HR MAX TEMP:  86;

MIDLAND        RAIN      74  65  74 N13       29.75R
6HR MIN TEMP:  74; 6HR MAX TEMP:  85;

TROY           FAIR      80  63  56 S7        29.81S
SAGINAW HB     FAIR      81  61  50 S5        29.75R
$$
MIZ043>046-050>051-056>058-064>065-071>073-077>080-270100-
SOUTHWEST LOWER MICHIGAN

CITY           SKY/WX    TMP DP  RH WIND       PRES   REMARKS
BATTLE CREEK   FAIR      82  59  45 NW8       29.77S
6HR MIN TEMP:  82; 6HR MAX TEMP:  85;

BENTON HARBOR  FAIR      80  59  48 CALM      29.76S
6HR MIN TEMP:  78; 6HR MAX TEMP:  81;

BIG RAPIDS     FAIR      82  61  49 W6        29.76R
6HR MIN TEMP:  81; 6HR MAX TEMP:  85;

COLDWATER      FAIR      83  50  32 NW6       29.77R
6HR MIN TEMP:  83; 6HR MAX TEMP:  87;

FREMONT        FAIR      79  62  55 SW6       29.75S
6HR MIN TEMP:  79; 6HR MAX TEMP:  86;

HOLLAND        FAIR      78  59  51 W3        29.76S
6HR MIN TEMP:  76; 6HR MAX TEMP:  80;

GRAND RAPIDS   FAIR      80  58  46 W10       29.76R
6HR MIN TEMP:  80; 6HR MAX TEMP:  84;

IONIA          FAIR      82  61  48 W7        29.76R
6HR MIN TEMP:  82; 6HR MAX TEMP:  86;

KALAMAZOO      FAIR      83  62  49 W7        29.76S
6HR MIN TEMP:  83; 6HR MAX TEMP:  86;

LUDINGTON      FAIR      72  61  67 W3        29.74S
6HR MIN TEMP:  67; 6HR MAX TEMP:  76;

MARSHALL       FAIR      82  58  45 W3        29.77R
6HR MIN TEMP:  80; 6HR MAX TEMP:  85;

MOUNT PLEASANT PTSUNNY   74  64  70 N13G23    29.80R
6HR MIN TEMP:  74; 6HR MAX TEMP:  87;

MUSKEGON       FAIR      73  59  61 SW6       29.76S
6HR MIN TEMP:  71; 6HR MAX TEMP:  78;

SOUTH HAVEN    FAIR      81  55  40 CALM      29.76S
$$
MIZ016>042-270100-
NORTHERN LOWER MICHIGAN

CITY           SKY/WX    TMP DP  RH WIND       PRES   REMARKS
ALPENA         FAIR      62  60  93 SE5       29.81R
6HR MIN TEMP:  62; 6HR MAX TEMP:  83; 6HR PCP:  0.21;

BEAVER ISLAND  FAIR      69  59  71 SE3       29.77F
6HR MIN TEMP:  61; 6HR MAX TEMP:  80;

BELLAIRE       FAIR      78  61  55 CALM      29.76R
6HR MIN TEMP:  78; 6HR MAX TEMP:  86;

CADILLAC       FAIR      72  64  74 SE10      29.80R
CHARLEVOIX     FAIR      72  61  67 CALM      29.80R
6HR MIN TEMP:  66; 6HR MAX TEMP:  76;

FRANKFORT      FAIR      68  62  80 CALM      29.76R
GAYLORD        FAIR      68  65  90 S3        29.80F
6HR MIN TEMP:  65; 6HR MAX TEMP:  84; 6HR PCP:  0.17;

GRAYLING       FAIR      73  65  74 S6        29.79R
6HR MIN TEMP:  70; 6HR MAX TEMP:  84; 6HR PCP:  0.08;

HARBOR SPRINGS FAIR      76  62  62 E5        29.76S
HOUGHTON LAKE  FAIR      66  62  87 CALM      29.81R
6HR MIN TEMP:  65; 6HR MAX TEMP:  85; 6HR PCP:  0.68;

MANISTEE       FAIR      81  62  52 CALM      29.74R
OSCODA         FAIR      59  53  80 E6        29.77F
6HR MIN TEMP:  55; 6HR MAX TEMP:  85;

PELLSTON       FAIR      77  62  59 SE5       29.77S
6HR MIN TEMP:  77; 6HR MAX TEMP:  84; 6HR PCP: TRACE;

ROGERS CITY    FAIR      69  60  73 E7        29.80R
TRAVERSE CITY  PTSUNNY   68  58  70 VRB3      29.75R
6HR MIN TEMP:  65; 6HR MAX TEMP:  83; 6HR PCP: TRACE;

$$
MIZ007>008-015-270100-
EASTERN UPPER MICHIGAN

CITY           SKY/WX    TMP DP  RH WIND       PRES   REMARKS
KINROSS        FAIR      67  60  78 SE12      29.80R
6HR MIN TEMP:  67; 6HR MAX TEMP:  80;

MACKINAC ISLAN FAIR      57  52  82 E5        29.78S
6HR MIN TEMP:  57; 6HR MAX TEMP:  70;

NEWBERRY       FAIR      70  62  77 SE8       29.75S
6HR MIN TEMP:  70; 6HR MAX TEMP:  79;

S. S. MARIE    FAIR      73  63  70 SE8       29.78R
6HR MIN TEMP:  73; 6HR MAX TEMP:  79;

MUNISING         N/A     73  61  65 S8        29.68F
6HR MIN TEMP:  56; 6HR MAX TEMP:  75; 6HR PCP:  0.14;

$$
MIZ004>006-011>014-085-270100-
CENTRAL UPPER MICHIGAN

CITY           SKY/WX    TMP DP  RH WIND       PRES   REMARKS
MANISTIQUE     FAIR      59  57  94 SE9       29.74F FOG
6HR MIN TEMP:  59; 6HR MAX TEMP:  66; 6HR PCP:  0.01;

ESCANABA       LGT RAIN  63  61  93 SE7       29.74F
6HR MIN TEMP:  61; 6HR MAX TEMP:  67; 6HR PCP:  0.16;

MENOMINEE      FAIR      69  63  81 E12       29.73F THUNDER
6HR MIN TEMP:  67; 6HR MAX TEMP:  84; 6HR PCP:  0.18;

SAWYER-GWINN   PTSUNNY   68  63  83 S13       29.74S
$$
MIZ001>003-009>011-084-270100-
WESTERN UPPER MICHIGAN

CITY           SKY/WX    TMP DP  RH WIND       PRES   REMARKS
IRON MOUNTAIN  FAIR      72  62  71 SE10G21   29.73S
6HR MIN TEMP:  72; 6HR MAX TEMP:  91;

HOUGHTON       FAIR      70  57  63 E7        29.70R
6HR MIN TEMP:  70; 6HR MAX TEMP:  84;

COPPER HARBOR    N/A     52  46  80 CALM      29.68F
6HR MIN TEMP:  44; 6HR MAX TEMP:  68;

IRONWOOD       FAIR      76  60  57 N6        29.70R
6HR MIN TEMP:  76; 6HR MAX TEMP:  88;

$$

ABBREVIATIONS USED IN REMARKS
   TC - TEMPERATURE IN CELSIUS
  WCI - WIND CHILL INDEX
   HX - HEAT INDEX
  VSB - VISIBILITY





USA.gov is the U.S. government's official web portal to all federal, state and local government web resources and services.